Location: Newark
(39.0622°N, 106.5590°E)
Time: 07:27:24
(UTC+00:00)

Courier 1B - Pass Details

Date: 31 January 2020
Orbit: 962 x 1209 km, 28.3° (Epoch: 20 February)

Event Time Altitude Azimuth Distance (km) Brightness Sun altitude
Rises 17:43:24 0° 239° (WSW) 3,677 - -66.9°
Reaches altitude 10° 17:46:19 10° 229° (SW) 2,757 - -66.7°
Maximum altitude 17:52:02 30° 170° (S) 1,738 - -66.2°
Drops below altitude 10° 17:58:03 10° 111° (ESE) 2,904 - -65.7°
Sets 18:01:12 0° 102° (ESE) 3,904 - -65.3°
